User: anonymous   Login
Location: Robledo de Chavela
(40.5014°N, 4.2377°W)
Time: 18:17:03
(UTC+00:00)
Language:

SJ 16-02 - Orbit

View from above orbital plane
View from above orbital plane
View from above satellite
View from above satellite

Ground track
Ground track

The orbit data is extracted from the following two-line orbital elements,

1 41634U 16043A   24171.53782476  .00000996  00000-0  10791-3 0  9994
2 41634  75.0000 212.5878 0008252 358.7929   1.3236 14.89324828432659
Epoch (UTC): 19 June 2024 12:54:28
Eccentricity: 0.0008252
inclination: 75.0000°
perigee height: 594 km
apogee height: 606 km
right ascension of ascending node: 212.5878°
argument of perigee: 358.7929°
revolutions per day: 14.89324828
mean anomaly at epoch: 1.3236°
orbit number at epoch: 43265

The dashed part of the orbit path shows where the satellite is in the earth's shadow,  

DLR